Regional Weather Roundup
Issued by NWS

Home | Current Version | Previous Version | Text Only | Print | Product List | Glossary On
Versions: 1 2 3 4 5 6 7 8 9 10 11 12 13 14 15 16 17 18 19 20 21 22 23 24 25 26 27 28 29 30 31 32 33 34 35 36 37 38 39 40 41 42 43 44 45 46 47 48 49 50
717
ASUS44 KJAN 020110
RWRMS

MISSISSIPPI HOURLY WEATHER ROUNDUP
NATIONAL WEATHER SERVICE JACKSON MS
800 PM CDT MON SEP 01 2014

NOTE: "FAIR: INDICATES FEW OR NO CLOUDS BELOW 12,000 FEET WITH NO
SIGNIFICANT WEATHER AND/OR OBSTRUCTIONS TO VISIBILITY.

MSZ001>002-007>008-010>013-018>021-025>028-034>036-020200-
NORTHWEST MISSISSIPPI

CITY           SKY/WX    TMP DP  RH WIND       PRES   REMARKS
CLARKSDALE     FAIR      82  75  78 CALM      29.96F
CLEVELAND      FAIR      83  75  77 S15G21    29.96S HX  90
GREENWOOD      PTCLDY    81  72  74 S10       29.98S
GREENVILLE     CLEAR     81  71  71 S12       29.96R
GRENADA        FAIR      81  72  74 CALM      29.98S
OLIVE BRANCH   CLEAR     81  77  89 CALM      29.98R
OXFORD         FAIR      81  72  74 CALM      30.00S
TUNICA         CLEAR     79  72  78 S3        29.96S
$$

MSZ003>006-009-014>017-022>024-029>033-037>039-020200-
NORTHEAST MISSISSIPPI

CITY           SKY/WX    TMP DP  RH WIND       PRES   REMARKS
BELMONT        FAIR      80  72  77 S3        30.02R
COLUMBUS AFB   CLEAR     82  72  72 SE1       30.01R
CORINTH        FAIR      79  73  83 CALM      29.99R
GOLDN TRIANGLE CLEAR     82  70  65 S6        30.01R
STARKVILLE     FAIR      79  73  83 CALM      30.01R
TUPELO         CLEAR     84  71  65 SW5       29.99S
$$

MSZ040-058-020200-
CENTRAL MISSISSIPPI

CITY           SKY/WX    TMP DP  RH WIND       PRES   REMARKS
JACKSON INTL   CLOUDY    78  73  84 S9        30.03S
JACKSON HAWKNS CLOUDY    79  73  82 S10       30.03S
MERIDIAN KEY   CLOUDY    80  72  76 S6        30.03S
MERIDIAN NAS   CLOUDY    83  71  67 CALM      30.03R
RAYMOND        FAIR      77  72  83 E6        30.02S
VICKSBURG      MOCLDY    80  72  76 SE8       29.99S
$$

MSZ059>079-020200-
SOUTH MISSISSIPPI

CITY           SKY/WX    TMP DP  RH WIND       PRES   REMARKS
BROOKHAVEN     FAIR      79  79 100 CALM      30.06R
HATTIESBURG    MOCLDY    83  74  74 S6        30.05R
MCCOMB         LGT RAIN  77  74  90 SE6       30.04R
NATCHEZ        CLOUDY    79  72  78 SE6       30.03R
PINE BELT      CLOUDY    79  73  83 SW3       30.06S
$$

MSZ080>082-020200-
COASTAL MISSISSIPPI

CITY           SKY/WX    TMP DP  RH WIND       PRES   REMARKS
BAY ST LOUIS   PTCLDY   N/A N/A N/A CALM      30.04R
BILOXI         PTCLDY    85  75  73 S8        30.04R HX  93
PASCAGOULA     MOCLDY    77  74  90 S3        30.04S
GULFPORT       MOCLDY    83  76  79 S5        30.03R HX  91
$$



USA.gov is the U.S. government's official web portal to all federal, state and local government web resources and services.